User: anonymous
Location: Harbor Island
(32.3990°N, 80.4435°W)
Time: 21:49:59
(UTC-04:00)
Language:

Cosmos 1455 - Orbit

View from above orbital plane
View from above orbital plane
View from above satellite
View from above satellite

Ground track
Ground track

The orbit data is extracted from the following two-line orbital elements,

1 14032U 83037A   14244.06911115  .00003636  00000-0  21244-3 0  6137
2 14032 082.5194 011.6112 0019328 209.4053 203.6578 15.11458397706917
Epoch (UTC): 01 September 2014 01:39:31
Eccentricity: 0.0019328
inclination: 82.5194°
perigee height: 518 km
apogee height: 545 km
right ascension of ascending node: 11.6112°
argument of perigee: 209.4053°
revolutions per day: 15.11458397
mean anomaly at epoch: 203.6578°
orbit number at epoch: 70691

The dashed part of the orbit path shows where the satellite is in the earth's shadow,  

DLR